#timestamp,LO_Frequency,Hit,StdDev 
1679360415.7,286047009.7,N
1679360435.6,286047011.0,Y
1679360455.4,286047001.3,P
1679360475.2,286047004.0,N
1679360495.1,286047001.4,N
1679360496.0,286047001.4,N
1679360515.8,286047002.7,N
1679360535.7,286047000.5,N
1679360555.5,286046995.0,N
1679360575.3,286046998.0,N
1679360595.2,286046997.4,N
1679360615.0,286046999.0,N
1679360615.9,286046999.0,N
1679360635.8,286046999.9,N
1679360655.6,286047002.3,N
1679360675.4,286047004.2,N
1679360695.3,286047001.7,N
1679360715.1,286047005.8,N
1679360735.9,286047009.6,Y
1679360755.7,286047007.9,P
1679360775.5,286047011.6,P
1679360795.4,286047002.2,N
1679360815.2,286047005.4,N
1679360835.0,286047007.5,N
1679360835.9,286047007.5,N
1679360855.8,286047001.7,N
1679360875.6,286047009.0,N
1679360895.5,286047014.8,Y
1679360915.3,286047009.8,P
1679360935.2,286047005.2,N
1679360955.9,286047004.2,N
1679360975.7,286047006.0,N
1679360995.6,286047001.3,N
1679361015.4,286047004.2,N
1679361035.2,286047003.1,N
1679361055.1,286047005.2,N
1679361056.0,286047005.2,N
1679361075.8,286047001.9,N
1679361095.7,286047006.0,N
1679361115.5,286047009.6,Y
1679361135.3,286047010.0,P
1679361155.2,286047005.1,N
1679361175.0,286047001.8,N
1679361175.9,286047001.8,N
1679361195.8,286047002.8,N
1679361215.6,286047001.2,N
1679361235.4,286047000.1,N
1679361255.3,286047001.7,N
1679361275.1,286047004.8,N
1679361295.8,286047003.4,N
1679361315.7,286047002.0,N
1679361335.5,286046998.5,N
1679361355.4,286047000.3,N
1679361375.2,286046998.4,N
1679361395.0,286046998.5,N
1679361395.9,286046998.5,N
1679361415.8,286047001.3,N
1679361435.6,286047004.0,N
1679361455.5,286047001.1,N
1679361475.3,286047009.1,Y
1679361495.1,286047005.0,P
1679361515.9,286047007.2,P
1679361535.7,286047003.4,N
1679361555.5,286047004.4,N
1679361575.4,286047002.8,N
1679361595.2,286047004.0,N
1679361615.1,286046999.8,N
1679361616.0,286046999.8,N
1679361635.8,286047000.3,N
1679361655.6,286046999.2,N
1679361675.5,286046997.5,N
1679361695.3,286047002.8,N
1679361715.1,286047002.4,N
1679361735.9,286047002.2,N
1679361755.7,286047003.6,N
1679361775.6,286047004.2,N
1679361795.4,286047002.9,N
1679361815.2,286047004.8,N
1679361835.1,286047005.8,N
1679361836.0,286047005.8,N
1679361855.8,286047005.9,N
1679361875.6,286047003.3,N
1679361895.5,286047007.1,N
1679361915.3,286047006.8,N
1679361935.2,286047008.7,Y
1679361955.9,286047002.3,P
1679361975.7,286047009.2,P
1679361995.6,286047006.3,N
1679362015.4,286047005.1,N
1679362035.2,286047007.1,N
1679362055.1,286047004.0,N
1679362056.0,286047004.0,N
1679362075.8,286047000.2,N
1679362095.7,286047006.3,N
1679362115.5,286047003.3,N
1679362135.3,286047005.3,N
1679362155.2,286047009.4,Y
1679362175.0,286047005.2,P
1679362175.9,286047005.2,P
1679362195.8,286047003.8,P
1679362215.6,286047002.7,Y
1679362235.4,286046996.6,P
1679362255.3,286046993.0,N
1679362275.1,286046995.2,N
1679362295.8,286046992.0,N
1679362315.7,286046994.0,N
1679362335.5,286046997.5,N
1679362355.4,286047000.7,N
1679362375.2,286047004.0,N
1679362395.0,286047003.6,N
1679362395.9,286047003.6,N
1679362415.8,286046997.0,N
1679362435.6,286046995.9,N
1679362455.4,286046999.3,N
1679362475.3,286047003.6,N
1679362495.1,286047004.5,N
1679362515.9,286047001.0,N
1679362535.7,286046998.2,N
1679362555.5,286047002.7,N
1679362575.4,286047003.7,N
1679362595.2,286047007.2,N
1679362615.0,286047003.8,N
1679362615.9,286047003.8,N
1679362635.8,286047002.0,N
1679362655.6,286047001.3,N
1679362675.5,286047001.8,N
1679362695.3,286047000.9,N
1679362715.1,286047002.1,N
1679362735.9,286047002.0,N
1679362755.7,286047003.0,N
1679362775.5,286047004.1,N
1679362795.4,286047006.6,N
1679362815.2,286047009.9,N
1679362835.1,286047006.7,N
1679362836.0,286047006.7,N
1679362855.8,286047003.4,N
1679362875.6,286047008.7,N
1679362895.5,286047012.2,Y
1679362915.3,286047009.1,P
1679362935.1,286047003.5,N
1679362955.9,286047007.3,N
1679362975.7,286047004.4,N
1679362995.6,286047000.0,N
1679363015.4,286047000.9,N
1679363035.2,286047003.7,N
1679363055.1,286047004.3,N
1679363056.0,286047004.3,N
1679363075.8,286047002.6,N
1679363095.6,286047006.0,N
1679363115.5,286047002.9,N
1679363135.3,286046998.4,N
1679363155.2,286047003.9,N
1679363175.9,286047003.6,N
1679363195.7,286047006.0,N
1679363215.6,286047007.2,N
1679363235.4,286047007.1,N
1679363255.3,286047008.0,Y
1679363275.1,286047007.4,P
1679363276.0,286047007.4,P
1679363295.8,286047008.7,P
1679363315.7,286047008.9,Y
1679363335.5,286047005.8,P
1679363355.4,286047003.8,P
1679363375.2,286047001.5,N
1679363395.0,286046996.5,N
1679363395.9,286046996.5,N
1679363415.8,286047002.8,N
1679363435.6,286047000.2,N
1679363455.4,286046999.9,N
1679363475.3,286046995.3,N
1679363495.1,286046994.9,N
1679363515.9,286046996.2,N
1679363535.7,286046996.4,N
1679363555.5,286046999.9,N
1679363575.4,286047000.1,N
1679363595.2,286046999.0,N
1679363615.0,286046999.4,N
1679363615.9,286046999.4,N
1679363635.8,286046993.3,N
1679363655.6,286046997.5,N
1679363675.5,286046996.1,N
1679363695.3,286047000.1,N
1679363715.1,286046998.1,N
1679363735.9,286047004.3,N
1679363755.7,286047000.7,N
1679363775.5,286046997.8,N
1679363795.4,286046997.6,N
1679363815.2,286046992.4,N
1679363835.1,286046994.6,N
1679363836.0,286046994.6,N
1679363855.8,286046999.6,N
1679363875.6,286046996.6,N
1679363895.5,286047002.7,N
1679363915.3,286047005.2,N
1679363935.1,286047009.1,N
1679363955.9,286047006.2,N
1679363975.7,286047009.7,N
1679363995.6,286047008.9,N
